Time,TemperatureF,DewpointF,PressureIn,WindDirection,WindDirectionDegrees,WindSpeedMPH,WindSpeedGustMPH,Humidity,HourlyPrecipIn,Conditions,Clouds,dailyrainin,SoftwareType,DateUTC
2013-02-05 00:05:00,45.3,42.8,29.87,SSE,158,2.0,2.0,91,0.00,,,0.00,Wunderground v.1.15,2013-02-05 08:05:00,
2013-02-05 00:15:00,45.1,42.3,29.87,South,185,1.0,1.0,90,0.00,,,0.00,Wunderground v.1.15,2013-02-05 08:15:00,
2013-02-05 00:25:00,45.0,42.2,29.86,SW,229,1.0,1.0,90,0.00,,,0.00,Wunderground v.1.15,2013-02-05 08:25:00,
2013-02-05 00:35:00,44.8,42.3,29.86,SE,126,1.0,4.0,91,0.00,,,0.00,Wunderground v.1.15,2013-02-05 08:35:00,
2013-02-05 00:45:00,45.0,42.5,29.86,SSE,164,1.0,4.0,91,0.00,,,0.00,Wunderground v.1.15,2013-02-05 08:45:00,
2013-02-05 00:50:00,45.1,42.6,29.87,SSE,149,1.0,4.0,91,0.00,,,0.00,Wunderground v.1.15,2013-02-05 08:50:00,
2013-02-05 00:55:00,45.2,42.7,29.87,SSE,162,0.0,4.0,91,0.00,,,0.00,Wunderground v.1.15,2013-02-05 08:55:00,
2013-02-05 01:05:00,45.2,42.7,29.86,SE,124,0.0,1.0,91,0.00,,,0.00,Wunderground v.1.15,2013-02-05 09:05:00,
2013-02-05 01:15:00,45.3,42.5,29.86,SSE,153,0.0,1.0,90,0.00,,,0.00,Wunderground v.1.15,2013-02-05 09:15:00,
2013-02-05 01:25:00,45.3,42.5,29.86,SSE,149,0.0,3.0,90,0.00,,,0.00,Wunderground v.1.15,2013-02-05 09:25:00,
2013-02-05 01:35:00,45.4,42.6,29.86,SE,133,1.0,5.0,90,0.00,,,0.00,Wunderground v.1.15,2013-02-05 09:35:00,
2013-02-05 01:45:00,45.5,42.7,29.86,South,185,1.0,5.0,90,0.00,,,0.00,Wunderground v.1.15,2013-02-05 09:45:00,
2013-02-05 01:55:00,45.6,42.5,29.86,SSW,205,1.0,5.0,89,0.00,,,0.00,Wunderground v.1.15,2013-02-05 09:55:00,
2013-02-05 02:05:00,45.6,42.5,29.86,SSE,166,1.0,1.0,89,0.00,,,0.00,Wunderground v.1.15,2013-02-05 10:05:00,
2013-02-05 02:15:00,45.6,42.5,29.86,East,96,1.0,1.0,89,0.00,,,0.00,Wunderground v.1.15,2013-02-05 10:15:00,
2013-02-05 02:25:00,45.6,42.8,29.86,South,175,1.0,2.0,90,0.00,,,0.00,Wunderground v.1.15,2013-02-05 10:25:00,
2013-02-05 02:30:00,45.6,42.8,29.86,SSE,163,1.0,1.0,90,0.00,,,0.00,Wunderground v.1.15,2013-02-05 10:30:00,
2013-02-05 02:35:00,45.5,42.7,29.86,SSE,156,1.0,3.0,90,0.00,,,0.00,Wunderground v.1.15,2013-02-05 10:35:00,
2013-02-05 02:45:00,45.5,42.7,29.85,SSE,161,0.0,3.0,90,0.00,,,0.00,Wunderground v.1.15,2013-02-05 10:45:00,
2013-02-05 02:55:00,45.4,42.6,29.84,South,185,0.0,3.0,90,0.00,,,0.00,Wunderground v.1.15,2013-02-05 10:55:00,
2013-02-05 03:05:00,45.3,42.5,29.84,South,175,1.0,1.0,90,0.00,,,0.00,Wunderground v.1.15,2013-02-05 11:05:00,
2013-02-05 03:15:00,45.3,42.5,29.84,South,180,1.0,1.0,90,0.00,,,0.00,Wunderground v.1.15,2013-02-05 11:15:00,
2013-02-05 03:25:00,45.3,42.5,29.85,South,169,0.0,1.0,90,0.00,,,0.00,Wunderground v.1.15,2013-02-05 11:25:00,
2013-02-05 03:35:00,45.3,42.5,29.85,South,175,0.0,5.0,90,0.00,,,0.00,Wunderground v.1.15,2013-02-05 11:35:00,
2013-02-05 03:45:00,45.4,42.6,29.85,South,175,0.0,5.0,90,0.00,,,0.00,Wunderground v.1.15,2013-02-05 11:45:00,
2013-02-05 03:55:00,45.4,42.6,29.85,South,175,0.0,5.0,90,0.00,,,0.00,Wunderground v.1.15,2013-02-05 11:55:00,
2013-02-05 04:05:00,45.4,42.6,29.86,SE,133,0.0,0.0,90,0.00,,,0.00,Wunderground v.1.15,2013-02-05 12:05:00,
2013-02-05 04:15:00,45.4,42.9,29.85,South,175,0.0,0.0,91,0.00,,,0.00,Wunderground v.1.15,2013-02-05 12:15:00,
2013-02-05 04:25:00,45.3,43.1,29.85,SSW,204,1.0,1.0,92,0.00,,,0.01,Wunderground v.1.15,2013-02-05 12:25:00,
2013-02-05 04:35:00,45.1,43.2,29.85,SSW,193,1.0,5.0,93,0.05,,,0.02,Wunderground v.1.15,2013-02-05 12:35:00,
2013-02-05 04:40:00,45.0,43.1,29.85,South,191,2.0,2.0,93,0.05,,,0.02,Wunderground v.1.15,2013-02-05 12:40:00,
2013-02-05 04:45:00,44.9,43.0,29.85,SSE,168,1.0,5.0,93,0.05,,,0.02,Wunderground v.1.15,2013-02-05 12:45:00,
2013-02-05 04:55:00,44.7,43.1,29.85,SSW,207,1.0,5.0,94,0.04,,,0.03,Wunderground v.1.15,2013-02-05 12:55:00,
2013-02-05 05:05:00,44.5,42.9,29.84,South,180,1.0,1.0,94,0.04,,,0.03,Wunderground v.1.15,2013-02-05 13:05:00,
2013-02-05 05:15:00,44.5,42.9,29.84,SSE,158,1.0,1.0,94,0.00,,,0.03,Wunderground v.1.15,2013-02-05 13:15:00,
2013-02-05 05:25:00,44.5,42.9,29.83,SSE,149,1.0,1.0,94,0.00,,,0.04,Wunderground v.1.15,2013-02-05 13:25:00,
2013-02-05 05:35:00,44.5,42.9,29.83,SW,214,1.0,7.0,94,0.00,,,0.04,Wunderground v.1.15,2013-02-05 13:35:00,
2013-02-05 05:45:00,44.4,42.8,29.82,South,180,1.0,7.0,94,0.05,,,0.05,Wunderground v.1.15,2013-02-05 13:45:00,
2013-02-05 05:55:00,44.4,42.5,29.82,South,175,2.0,7.0,93,0.00,,,0.05,Wunderground v.1.15,2013-02-05 13:55:00,
2013-02-05 06:05:00,44.5,42.9,29.81,SW,215,2.0,2.0,94,0.00,,,0.05,Wunderground v.1.15,2013-02-05 14:05:00,
2013-02-05 06:15:00,44.5,42.6,29.81,SSE,158,2.0,3.0,93,0.00,,,0.05,Wunderground v.1.15,2013-02-05 14:15:00,
2013-02-05 06:25:00,44.5,42.6,29.81,SE,127,2.0,2.0,93,0.00,,,0.05,Wunderground v.1.15,2013-02-05 14:25:00,
2013-02-05 06:30:00,44.5,42.9,29.81,SSE,165,2.0,2.0,94,0.00,,,0.05,Wunderground v.1.15,2013-02-05 14:30:00,
2013-02-05 06:35:00,44.5,42.9,29.81,ENE,77,1.0,7.0,94,0.00,,,0.05,Wunderground v.1.15,2013-02-05 14:35:00,
2013-02-05 06:45:00,44.5,42.9,29.82,South,175,0.0,7.0,94,0.00,,,0.05,Wunderground v.1.15,2013-02-05 14:45:00,
2013-02-05 06:55:00,44.4,43.1,29.81,SE,135,0.0,7.0,95,0.00,,,0.05,Wunderground v.1.15,2013-02-05 14:55:00,
2013-02-05 07:05:00,44.4,43.1,29.81,ESE,120,0.0,0.0,95,0.00,,,0.05,Wunderground v.1.15,2013-02-05 15:05:00,
2013-02-05 07:10:00,44.3,43.0,29.82,SSE,162,0.0,1.0,95,0.00,,,0.05,Wunderground v.1.15,2013-02-05 15:10:00,
2013-02-05 07:15:00,44.3,43.0,29.82,SE,145,1.0,1.0,95,0.00,,,0.05,Wunderground v.1.15,2013-02-05 15:15:00,
2013-02-05 07:25:00,44.3,43.0,29.82,SSE,160,0.0,1.0,95,0.00,,,0.05,Wunderground v.1.15,2013-02-05 15:25:00,
2013-02-05 07:35:00,44.3,43.0,29.82,ESE,113,0.0,8.0,95,0.00,,,0.05,Wunderground v.1.15,2013-02-05 15:35:00,
2013-02-05 07:45:00,44.3,43.0,29.82,SE,132,0.0,8.0,95,0.00,,,0.05,Wunderground v.1.15,2013-02-05 15:45:00,
2013-02-05 07:55:00,44.3,43.0,29.83,South,175,0.0,8.0,95,0.00,,,0.05,Wunderground v.1.15,2013-02-05 15:55:00,
2013-02-05 08:05:00,44.4,43.1,29.82,SSE,151,1.0,2.0,95,0.00,,,0.05,Wunderground v.1.15,2013-02-05 16:05:00,
2013-02-05 08:15:00,44.5,43.2,29.83,South,171,1.0,1.0,95,0.00,,,0.05,Wunderground v.1.15,2013-02-05 16:15:00,
2013-02-05 08:20:00,44.5,43.2,29.83,South,180,1.0,2.0,95,0.00,,,0.05,Wunderground v.1.15,2013-02-05 16:20:00,
2013-02-05 08:25:00,44.6,43.0,29.83,South,180,1.0,2.0,94,0.00,,,0.05,Wunderground v.1.15,2013-02-05 16:25:00,
2013-02-05 08:35:00,44.6,43.0,29.83,SE,131,0.0,4.0,94,0.00,,,0.05,Wunderground v.1.15,2013-02-05 16:35:00,
2013-02-05 08:45:00,44.7,42.8,29.83,SSE,160,1.0,4.0,93,0.00,,,0.05,Wunderground v.1.15,2013-02-05 16:45:00,
2013-02-05 08:55:00,45.0,42.8,29.83,SSE,167,1.0,4.0,92,0.00,,,0.05,Wunderground v.1.15,2013-02-05 16:55:00,
2013-02-05 09:00:00,45.1,42.6,29.83,South,175,1.0,1.0,91,0.00,,,0.05,Wunderground v.1.15,2013-02-05 17:00:00,
2013-02-05 09:10:00,45.4,42.6,29.83,South,185,1.0,2.0,90,0.00,,,0.05,Wunderground v.1.15,2013-02-05 17:10:00,
2013-02-05 09:15:00,45.6,42.5,29.83,South,175,1.0,2.0,89,0.00,,,0.05,Wunderground v.1.15,2013-02-05 17:15:00,
2013-02-05 09:25:00,46.3,43.2,29.83,SW,214,2.0,3.0,89,0.00,,,0.05,Wunderground v.1.15,2013-02-05 17:25:00,
2013-02-05 09:35:00,47.6,44.2,29.83,South,180,2.0,6.0,88,0.00,,,0.05,Wunderground v.1.15,2013-02-05 17:35:00,
2013-02-05 09:45:00,48.0,44.0,29.83,South,185,3.0,5.0,86,0.00,,,0.05,Wunderground v.1.15,2013-02-05 17:45:00,
2013-02-05 09:50:00,48.0,43.4,29.83,SW,214,3.0,5.0,84,0.00,,,0.05,Wunderground v.1.15,2013-02-05 17:50:00,
2013-02-05 09:55:00,47.9,43.3,29.83,South,185,2.0,5.0,84,0.00,,,0.05,Wunderground v.1.15,2013-02-05 17:55:00,
2013-02-05 10:05:00,48.1,43.5,29.84,South,175,2.0,5.0,84,0.00,,,0.05,Wunderground v.1.15,2013-02-05 18:05:00,
2013-02-05 10:15:00,48.6,44.0,29.84,SSE,160,2.0,4.0,84,0.00,,,0.05,Wunderground v.1.15,2013-02-05 18:15:00,
2013-02-05 10:25:00,49.6,44.3,29.84,ESE,106,2.0,4.0,82,0.00,,,0.05,Wunderground v.1.15,2013-02-05 18:25:00,
2013-02-05 10:35:00,49.9,44.3,29.84,SW,227,2.0,8.0,81,0.00,,,0.05,Wunderground v.1.15,2013-02-05 18:35:00,
2013-02-05 10:45:00,50.3,44.4,29.84,South,180,2.0,8.0,80,0.00,,,0.05,Wunderground v.1.15,2013-02-05 18:45:00,
2013-02-05 10:55:00,50.3,44.4,29.84,SE,133,1.0,4.0,80,0.00,,,0.05,Wunderground v.1.15,2013-02-05 18:55:00,
2013-02-05 11:05:00,50.3,44.0,29.84,SE,126,2.0,2.0,79,0.00,,,0.05,Wunderground v.1.15,2013-02-05 19:05:00,
2013-02-05 11:15:00,50.2,43.6,29.84,SSE,152,2.0,2.0,78,0.00,,,0.05,Wunderground v.1.15,2013-02-05 19:15:00,
2013-02-05 11:25:00,49.7,44.1,29.84,SSW,202,3.0,5.0,81,0.00,,,0.05,Wunderground v.1.15,2013-02-05 19:25:00,
2013-02-05 11:35:00,48.3,44.0,29.84,SW,216,3.0,6.0,85,0.00,,,0.05,Wunderground v.1.15,2013-02-05 19:35:00,
2013-02-05 11:40:00,48.1,44.1,29.84,SSE,158,3.0,3.0,86,0.00,,,0.05,Wunderground v.1.15,2013-02-05 19:40:00,
2013-02-05 11:45:00,48.1,44.1,29.84,SSW,200,3.0,7.0,86,0.00,,,0.05,Wunderground v.1.15,2013-02-05 19:45:00,
2013-02-05 11:55:00,48.7,44.1,29.84,NW,317,2.0,7.0,84,0.00,,,0.05,Wunderground v.1.15,2013-02-05 19:55:00,
2013-02-05 12:05:00,49.5,44.2,29.83,SE,143,3.0,7.0,82,0.00,,,0.05,Wunderground v.1.15,2013-02-05 20:05:00,
2013-02-05 12:15:00,49.6,44.0,29.83,SSE,161,3.0,3.0,81,0.00,,,0.05,Wunderground v.1.15,2013-02-05 20:15:00,
2013-02-05 12:25:00,49.9,44.0,29.83,East,83,3.0,3.0,80,0.00,,,0.05,Wunderground v.1.15,2013-02-05 20:25:00,
2013-02-05 12:35:00,50.5,44.2,29.83,SSW,197,3.0,11.0,79,0.00,,,0.05,Wunderground v.1.15,2013-02-05 20:35:00,
2013-02-05 12:45:00,51.0,43.7,29.83,SSW,204,3.0,11.0,76,0.00,,,0.05,Wunderground v.1.15,2013-02-05 20:45:00,
2013-02-05 12:55:00,51.2,43.9,29.83,SW,214,3.0,11.0,76,0.00,,,0.05,Wunderground v.1.15,2013-02-05 20:55:00,
2013-02-05 13:05:00,50.7,44.4,29.83,SSW,202,2.0,6.0,79,0.00,,,0.05,Wunderground v.1.15,2013-02-05 21:05:00,
2013-02-05 13:15:00,50.3,43.7,29.83,North,360,3.0,3.0,78,0.00,,,0.05,Wunderground v.1.15,2013-02-05 21:15:00,
2013-02-05 13:25:00,50.5,44.2,29.82,SW,219,3.0,3.0,79,0.00,,,0.05,Wunderground v.1.15,2013-02-05 21:25:00,
2013-02-05 13:30:00,50.9,43.6,29.82,South,191,3.0,3.0,76,0.00,,,0.05,Wunderground v.1.15,2013-02-05 21:30:00,
2013-02-05 13:35:00,51.2,43.5,29.82,SSW,201,3.0,4.0,75,0.00,,,0.05,Wunderground v.1.15,2013-02-05 21:35:00,
2013-02-05 13:45:00,50.7,43.8,29.82,SSW,210,3.0,10.0,77,0.00,,,0.05,Wunderground v.1.15,2013-02-05 21:45:00,
2013-02-05 13:50:00,50.5,43.6,29.81,SSW,202,2.0,10.0,77,0.00,,,0.05,Wunderground v.1.15,2013-02-05 21:50:00,
2013-02-05 13:55:00,50.5,43.9,29.81,NNE,14,2.0,10.0,78,0.00,,,0.05,Wunderground v.1.15,2013-02-05 21:55:00,
2013-02-05 14:00:00,50.4,43.8,29.81,South,180,3.0,3.0,78,0.00,,,0.05,Wunderground v.1.15,2013-02-05 22:00:00,
2013-02-05 14:10:00,50.3,43.7,29.81,SSE,151,3.0,3.0,78,0.00,,,0.05,Wunderground v.1.15,2013-02-05 22:10:00,
2013-02-05 14:15:00,50.3,43.7,29.81,NW,310,2.0,3.0,78,0.00,,,0.05,Wunderground v.1.15,2013-02-05 22:15:00,
2013-02-05 14:25:00,50.3,43.4,29.81,SSW,195,3.0,6.0,77,0.00,,,0.05,Wunderground v.1.15,2013-02-05 22:25:00,
2013-02-05 14:35:00,50.4,42.8,29.81,SSW,197,3.0,6.0,75,0.00,,,0.05,Wunderground v.1.15,2013-02-05 22:35:00,
2013-02-05 14:45:00,50.1,43.2,29.81,South,180,4.0,10.0,77,0.00,,,0.05,Wunderground v.1.15,2013-02-05 22:45:00,
2013-02-05 14:55:00,49.3,43.7,29.82,South,170,3.0,10.0,81,0.00,,,0.05,Wunderground v.1.15,2013-02-05 22:55:00,
2013-02-05 15:05:00,48.7,43.5,29.82,South,175,3.0,3.0,82,0.00,,,0.05,Wunderground v.1.15,2013-02-05 23:05:00,
2013-02-05 15:15:00,48.3,44.0,29.82,SSE,151,2.0,3.0,85,0.00,,,0.05,Wunderground v.1.15,2013-02-05 23:15:00,
2013-02-05 15:25:00,48.1,44.1,29.82,SE,132,3.0,5.0,86,0.00,,,0.05,Wunderground v.1.15,2013-02-05 23:25:00,
2013-02-05 15:35:00,48.2,44.2,29.81,SW,220,2.0,3.0,86,0.00,,,0.05,Wunderground v.1.15,2013-02-05 23:35:00,
2013-02-05 15:45:00,48.5,44.2,29.81,SW,218,2.0,9.0,85,0.00,,,0.05,Wunderground v.1.15,2013-02-05 23:45:00,
2013-02-05 15:55:00,48.9,44.0,29.81,South,189,1.0,9.0,83,0.00,,,0.05,Wunderground v.1.15,2013-02-05 23:55:00,
2013-02-05 16:05:00,48.8,43.2,29.82,South,185,3.0,4.0,81,0.00,,,0.05,Wunderground v.1.15,2013-02-06 00:05:00,
2013-02-05 16:15:00,48.4,42.8,29.82,SSW,201,3.0,6.0,81,0.00,,,0.05,Wunderground v.1.15,2013-02-06 00:15:00,
2013-02-05 16:25:00,48.0,42.8,29.82,SSE,149,3.0,5.0,82,0.00,,,0.05,Wunderground v.1.15,2013-02-06 00:25:00,
2013-02-05 16:35:00,47.2,43.2,29.82,SSE,168,3.0,10.0,86,0.00,,,0.06,Wunderground v.1.15,2013-02-06 00:35:00,
2013-02-05 16:45:00,46.2,42.8,29.82,South,180,2.0,10.0,88,0.10,,,0.07,Wunderground v.1.15,2013-02-06 00:45:00,
2013-02-05 16:55:00,45.5,42.2,29.82,WSW,246,1.0,10.0,88,0.04,,,0.07,Wunderground v.1.15,2013-02-06 00:55:00,
2013-02-05 17:05:00,45.2,42.4,29.82,WSW,258,2.0,2.0,90,0.00,,,0.08,Wunderground v.1.15,2013-02-06 01:05:00,
2013-02-05 17:15:00,45.0,42.8,29.82,WNW,301,1.0,2.0,92,0.00,,,0.08,Wunderground v.1.15,2013-02-06 01:15:00,
2013-02-05 17:20:00,44.9,42.7,29.82,SSE,148,1.0,2.0,92,0.00,,,0.08,Wunderground v.1.15,2013-02-06 01:20:00,
2013-02-05 17:25:00,44.8,42.3,29.82,North,358,2.0,2.0,91,0.00,,,0.08,Wunderground v.1.15,2013-02-06 01:25:00,
2013-02-05 17:35:00,44.9,42.7,29.82,SSW,210,2.0,6.0,92,0.00,,,0.08,Wunderground v.1.15,2013-02-06 01:35:00,
2013-02-05 17:45:00,44.9,42.4,29.82,SSW,208,3.0,11.0,91,0.00,,,0.08,Wunderground v.1.15,2013-02-06 01:45:00,
2013-02-05 17:55:00,44.9,42.4,29.82,South,175,2.0,4.0,91,0.00,,,0.08,Wunderground v.1.15,2013-02-06 01:55:00,
2013-02-05 18:05:00,44.9,42.4,29.82,WNW,289,2.0,4.0,91,0.00,,,0.08,Wunderground v.1.15,2013-02-06 02:05:00,
2013-02-05 18:15:00,45.1,42.6,29.82,ESE,110,2.0,3.0,91,0.00,,,0.08,Wunderground v.1.15,2013-02-06 02:15:00,
2013-02-05 18:25:00,45.1,42.9,29.82,SSE,149,2.0,5.0,92,0.00,,,0.08,Wunderground v.1.15,2013-02-06 02:25:00,
2013-02-05 18:35:00,45.3,42.8,29.83,SSW,206,3.0,4.0,91,0.00,,,0.08,Wunderground v.1.15,2013-02-06 02:35:00,
2013-02-05 18:45:00,45.6,43.1,29.83,SE,129,2.0,7.0,91,0.00,,,0.08,Wunderground v.1.15,2013-02-06 02:45:00,
2013-02-05 18:50:00,45.7,43.2,29.84,SE,130,2.0,7.0,91,0.00,,,0.08,Wunderground v.1.15,2013-02-06 02:50:00,
2013-02-05 18:55:00,45.9,43.4,29.84,SSE,150,2.0,8.0,91,0.00,,,0.08,Wunderground v.1.15,2013-02-06 02:55:00,
2013-02-05 19:05:00,46.0,42.6,29.84,SW,219,3.0,3.0,88,0.00,,,0.08,Wunderground v.1.15,2013-02-06 03:05:00,
2013-02-05 19:10:00,46.0,42.6,29.84,South,185,3.0,3.0,88,0.00,,,0.08,Wunderground v.1.15,2013-02-06 03:10:00,
2013-02-05 19:15:00,45.9,42.8,29.84,SSE,157,3.0,3.0,89,0.00,,,0.08,Wunderground v.1.15,2013-02-06 03:15:00,
2013-02-05 19:25:00,45.7,42.6,29.84,SSW,199,2.0,2.0,89,0.00,,,0.08,Wunderground v.1.15,2013-02-06 03:25:00,
2013-02-05 19:30:00,45.6,42.5,29.85,SE,139,2.0,3.0,89,0.00,,,0.08,Wunderground v.1.15,2013-02-06 03:30:00,
2013-02-05 19:35:00,45.6,42.3,29.85,WSW,247,2.0,10.0,88,0.00,,,0.08,Wunderground v.1.15,2013-02-06 03:35:00,
2013-02-05 19:45:00,45.4,42.3,29.85,ESE,118,3.0,10.0,89,0.00,,,0.08,Wunderground v.1.15,2013-02-06 03:45:00,
2013-02-05 19:55:00,45.3,42.2,29.85,SSW,202,3.0,10.0,89,0.00,,,0.08,Wunderground v.1.15,2013-02-06 03:55:00,
2013-02-05 20:05:00,45.4,42.3,29.85,South,189,3.0,3.0,89,0.00,,,0.08,Wunderground v.1.15,2013-02-06 04:05:00,
2013-02-05 20:10:00,45.5,42.4,29.85,SE,135,3.0,3.0,89,0.00,,,0.08,Wunderground v.1.15,2013-02-06 04:10:00,
2013-02-05 20:15:00,45.4,42.1,29.85,SSE,166,3.0,6.0,88,0.00,,,0.08,Wunderground v.1.15,2013-02-06 04:15:00,
2013-02-05 20:25:00,45.3,42.0,29.85,SSE,158,3.0,3.0,88,0.00,,,0.08,Wunderground v.1.15,2013-02-06 04:25:00,
2013-02-05 20:35:00,45.1,41.8,29.85,South,170,4.0,11.0,88,0.00,,,0.08,Wunderground v.1.15,2013-02-06 04:35:00,
2013-02-05 20:45:00,45.0,41.7,29.85,South,175,4.0,11.0,88,0.00,,,0.08,Wunderground v.1.15,2013-02-06 04:45:00,
2013-02-05 20:55:00,44.9,41.6,29.86,ESE,104,4.0,11.0,88,0.00,,,0.08,Wunderground v.1.15,2013-02-06 04:55:00,
2013-02-05 21:00:00,44.9,41.6,29.86,South,185,4.0,6.0,88,0.00,,,0.08,Wunderground v.1.15,2013-02-06 05:00:00,
2013-02-05 21:05:00,44.8,41.5,29.86,WSW,239,3.0,6.0,88,0.00,,,0.08,Wunderground v.1.15,2013-02-06 05:05:00,
2013-02-05 21:10:00,44.8,41.5,29.86,South,175,3.0,6.0,88,0.00,,,0.08,Wunderground v.1.15,2013-02-06 05:10:00,
2013-02-05 21:15:00,44.8,42.0,29.87,South,180,3.0,6.0,90,0.00,,,0.09,Wunderground v.1.15,2013-02-06 05:15:00,
2013-02-05 21:20:00,44.5,42.0,29.87,SSW,193,3.0,3.0,91,0.00,,,0.09,Wunderground v.1.15,2013-02-06 05:20:00,
2013-02-05 21:25:00,44.3,42.1,29.88,SSW,192,3.0,3.0,92,0.21,,,0.11,Wunderground v.1.15,2013-02-06 05:25:00,
2013-02-05 21:30:00,44.2,42.0,29.88,SSE,154,3.0,3.0,92,0.10,,,0.11,Wunderground v.1.15,2013-02-06 05:30:00,
2013-02-05 21:35:00,44.1,41.9,29.88,South,180,2.0,4.0,92,0.05,,,0.11,Wunderground v.1.15,2013-02-06 05:35:00,
2013-02-05 21:45:00,44.0,41.8,29.88,SSE,165,2.0,12.0,92,0.00,,,0.11,Wunderground v.1.15,2013-02-06 05:45:00,
2013-02-05 21:55:00,44.0,41.8,29.87,SSW,200,3.0,12.0,92,0.00,,,0.11,Wunderground v.1.15,2013-02-06 05:55:00,
2013-02-05 22:05:00,44.2,42.0,29.87,South,175,4.0,5.0,92,0.00,,,0.11,Wunderground v.1.15,2013-02-06 06:05:00,
2013-02-05 22:10:00,44.3,41.8,29.86,SSE,158,4.0,6.0,91,0.00,,,0.11,Wunderground v.1.15,2013-02-06 06:10:00,
2013-02-05 22:15:00,44.3,41.8,29.86,SE,143,4.0,6.0,91,0.00,,,0.11,Wunderground v.1.15,2013-02-06 06:15:00,
2013-02-05 22:25:00,44.3,41.8,29.87,ESE,108,5.0,7.0,91,0.00,,,0.11,Wunderground v.1.15,2013-02-06 06:25:00,
2013-02-05 22:35:00,44.5,42.0,29.87,South,185,4.0,12.0,91,0.00,,,0.11,Wunderground v.1.15,2013-02-06 06:35:00,
2013-02-05 22:45:00,44.6,42.1,29.88,SSW,200,4.0,6.0,91,0.00,,,0.11,Wunderground v.1.15,2013-02-06 06:45:00,
2013-02-05 22:55:00,44.7,41.9,29.88,SE,128,4.0,10.0,90,0.00,,,0.11,Wunderground v.1.15,2013-02-06 06:55:00,
2013-02-05 23:05:00,44.6,41.8,29.88,South,185,5.0,7.0,90,0.00,,,0.11,Wunderground v.1.15,2013-02-06 07:05:00,
2013-02-05 23:10:00,44.6,41.8,29.88,NNW,343,4.0,4.0,90,0.00,,,0.11,Wunderground v.1.15,2013-02-06 07:10:00,
2013-02-05 23:15:00,44.5,42.0,29.89,SSW,196,4.0,4.0,91,0.00,,,0.11,Wunderground v.1.15,2013-02-06 07:15:00,
2013-02-05 23:25:00,44.5,41.7,29.89,South,180,4.0,5.0,90,0.00,,,0.11,Wunderground v.1.15,2013-02-06 07:25:00,
2013-02-05 23:30:00,44.5,41.7,29.89,SE,139,4.0,4.0,90,0.00,,,0.11,Wunderground v.1.15,2013-02-06 07:30:00,
2013-02-05 23:35:00,44.6,41.8,29.89,SW,214,4.0,5.0,90,0.00,,,0.11,Wunderground v.1.15,2013-02-06 07:35:00,
2013-02-05 23:45:00,44.7,41.7,29.89,NNE,17,4.0,16.0,89,0.00,,,0.11,Wunderground v.1.15,2013-02-06 07:45:00,
2013-02-05 23:55:00,44.7,41.9,29.90,SSW,202,4.0,16.0,90,0.00,,,0.11,Wunderground v.1.15,2013-02-06 07:55:00,